This is the latest recevied weather packets stored in our database for station/object N0HOT. If no packets are shown the sender has not sent any weather packets the latest 10 day(s).
| Time | Temp. | Humidity | Pressure | Rain* | Wind** | Luminosity | Snow |
|---|---|---|---|---|---|---|---|
| 1777663255 | 13.33° C | 26% | 1017 hPa | 0 mm | - | 896 W/m² | - |
| 1777662952 | 13.33° C | 24% | 1017 hPa | 0 mm | - | 847 W/m² | - |
| 1777662649 | 12.78° C | 23% | 1017.3 hPa | 0 mm | - | 783 W/m² | - |
| 1777662345 | 12.78° C | 24% | 1017 hPa | 0 mm | - | 730 W/m² | - |
| 1777661737 | 12.78° C | 28% | 1017.3 hPa | 0 mm | - | 863 W/m² | - |
| 1777661433 | 12.22° C | 27% | 1017.8 hPa | 0 mm | - | 821 W/m² | - |
| 1777660526 | 12.22° C | 28% | 1017.3 hPa | 0 mm | - | 284 W/m² | - |
| 1777660222 | 12.22° C | 29% | 1017.3 hPa | 0 mm | - | 785 W/m² | - |
| 1777659616 | 12.22° C | 26% | 1017.3 hPa | 0 mm | - | 756 W/m² | - |
| 1777659314 | 12.22° C | 28% | 1017.3 hPa | 0 mm | - | 732 W/m² | - |
| 1777659010 | 12.22° C | 30% | 1017.8 hPa | 0 mm | - | 810 W/m² | - |
| 1777657797 | 11.67° C | 30% | 1018.1 hPa | 0 mm | - | 512 W/m² | - |
| 1777654765 | 10.56° C | 33% | 1018.1 hPa | 0 mm | - | 747 W/m² | - |
| 1777653554 | 11.11° C | 37% | 1018.1 hPa | 0 mm | - | 815 W/m² | - |
| 1777652946 | 11.11° C | 35% | 1018.5 hPa | 0 mm | - | 869 W/m² | - |
| 1777652643 | 11.67° C | 34% | 1018.1 hPa | 0 mm | - | 893 W/m² | - |
| 1777652340 | 11.11° C | 36% | 1018.1 hPa | 0 mm | - | 880 W/m² | - |
| 1777652037 | 11.11° C | 32% | 1018.5 hPa | 0 mm | - | 821 W/m² | - |
| 1777651734 | 11.11° C | 32% | 1018.5 hPa | 0 mm | - | 826 W/m² | - |
| 1777651430 | 10.56° C | 35% | 1018.5 hPa | 0 mm | - | 817 W/m² | - |
| 1777650824 | 10.56° C | 34% | 1018.5 hPa | 0 mm | - | 309 W/m² | - |
| 1777649916 | 11.11° C | 38% | 1018.5 hPa | 0 mm | - | 294 W/m² | - |
| 1777649613 | 11.11° C | 35% | 1018.5 hPa | 0 mm | - | 746 W/m² | - |
| 1777649309 | 10.56° C | 37% | 1018.8 hPa | 0 mm | - | 721 W/m² | - |
| 1777649006 | 10.56° C | 36% | 1018.8 hPa | 0 mm | - | 688 W/m² | - |
* Rain latest hour (hover to see other rain measurements)
** Current wind speed in m/s (hover to see current wind gust speed)